"Pseudo-MPEC" for N00e554

Created 2018 Dec 8 15:18:05 UT using Find_Orb

Click here for an explanation of pseudo-MPECs

 
 Astrometry: 
     N00e554  C2018 07 08+w=#i,0/)JiY($;AvANy6O,\x$%KCWV@uAstrometry3tt*M#/p6F52
     N00e554  C2018 07 08,Ic5Vy34X8W5IR06O0eVgtMX1!0CL])O+S+s1D+Fm71]=`H(p5VwF52
     N00e554  C2018 07 08nmTne:Gqg2oLYcjy[*G=7tx^;Qp0dM3mX4dG3LZO6$(q.P4bAb:%F52
     N00e554  C2018 07 08eN'X`;B`bU3v^#gNbq%8%?q]?GAN;,VB?=]aWqDv/GwvO_Gld9K^F52
     N00e554  C2018 11 08Miob3,Jj,u5)^65f?\2^v7vay-s\lF%bohu!lf.A!k%7K:WjQi(MF52
     N00e554  C2018 11 08;X-A@VcWU\ev7V!([p`LG).tdgbCRI9d04+fw!wR7=(NM]V/Sp[CF52
     N00e554  C2018 11 08mT'#h2CegAq$^yRe]ct6Y/kYSswcd9Wm.56tX!SM@kLMWc6QToaEF52
     N00e554  S2018 11 27M8:uO1taf6o91`@^q)NI]wd\XU;57h'+='4Nv;lE.#+N;W2iZIgDC51
     N00e554  s2018 11 27,+M8HTLwVl#G-)vd;eDdRBJx?CLGpJKDG[!m^HG?/P;skZq0g94AC51
     N00e554  S2018 11 27QR/v08w#v$o/Ud]ETd2nyS_-jtg)Ls8(o@GYqG^@09+mm*XJWI/mC51
     N00e554  s2018 11 27lMl3N%^Oc$:Vc-Jmc\c39fwWZ[1ktT]!J*bYCgMP[$xx`a2SNcdbC51
     N00e554  S2018 11 27c(Qm.m'+ZT+eicch#$TVRqtn;TA^bIredacted;dL+o?mcxwU^xGC51
     N00e554  s2018 11 27jk0_`dZDM]cSh2L5uM4M\riZsI!x-O4QAD6'.q5.iBwUo2+vXXr!C51
     N00e554  S2018 11 28wX=rVSSe$YT3wdXFPcBQuT#v#!HHfyZ)q77$Vo8d\:;FLaQi)(]_C51
     N00e554  s2018 11 28j9ytdjeh4equ=!hHEK*ccj2!-\;rMTK!rf:A'qpbiK*kpUv4@FsMC51
     N00e554  S2018 11 281:fw/]Q*#F%07v@gd8-d2ZGF3WC8h7$?F;KPZN*`N0K?`k-J):4;C51
     N00e554  s2018 11 28\PY!wtLM.T2o\Bt(ec,H#t,04I$M#:#6;1B(?P:h36bir'R$*/xHC51
     N00e554  S2018 11 28B[fYPADL#=#q`j-3%*?]4(56xxL=?5:TUM+vKWyB4J($W+76i0sWC51
     N00e554  s2018 11 28/[.#5cPt:URmwfEOe6@.Gme`V2wr+,S9/BV9=pnodF5\LZ1kqQyrC51
     N00e554  S2018 11 28M[t%#*s@!AiegXGm92^dd7\cUn_#l@?LnyOyroTm8?[q@Nd,g(J$C51
     N00e554  s2018 11 28iRn/$bTo4#I'pBbA7+IXgs6+a$qmR`EI#eW2y5['_XCt41ClR=)7C51
     N00e554  S2018 12 01J_LMV7_BkNWL35o90*$SPVJ3G(A/-Z1Wt7_*OxLtL)F9?;,Oy0\PC51
     N00e554  s2018 12 01PCsaTGymQ(kWq`0Y=bqE!RAAWq*3MclickQ2@\nf9p]SrngidO:EC51
     N00e554  S2018 12 01k8@uKG7h+T/Uk'_)q$Y1I-'H4;i6`\05-X;EW*.@`y\g9f8qy$t,C51
     N00e554  s2018 12 01`Huu/-jT-!9;Ayn#f-CYXB]ROhuIh;4(c/#rG'#H@rCsfF9NDr,fC51
     N00e554  S2018 12 01?OSGlb$XKy[MsSpl?q`G;XT'hmwe[+0oRV11ti\tJdm#Z:v+DFXRC51
     N00e554  s2018 12 01AqDj#!4NjKHn5pqIdGUdk!vw)wvbcV]4M7(L)LQ+@f!kie9D)^6]C51
     N00e554  S2018 12 01TC1kxmq'tH2:hh`X-SV7kV=':t:::]Qn_X01_*YLx:^ZGk6^]GUdC51
     N00e554  s2018 12 01`7v#QT3bnqu@oQ4.1[yt\I)!3YMVO3H%6y3#;'tj!DB5R-K+/EB2C51
     N00e554  S2018 12 01r+k@0'?x_4%YX[Wp/bA;K@]^oZh06F(B7H,rA^W/dkBEHvoX^kM0C51
     N00e554  s2018 12 01k4\M0sPqlKUI5?nW=ShO8YHj@pK`pRCCcpsZby5f4/Zk'QDo6((8C51
     N00e554  S2018 12 01nslk\?%+ER:Ywv1uk72NtJGv3y=6G6\8LxWBWOM'B6XGTc8f72j8C51
     N00e554  s2018 12 01JOQvN.r+8EbsAxR_y,#7L:$SgNDGA]KK4GSvs84.:R`SQFVCrqGhC51
     N00e554  S2018 12 01_:cs;p4T^,/lFa,TmR06$[7m9YcH!!uW4EEi)QRvRm(,:5p*9RA`C51
     N00e554  s2018 12 01cD8OX]t!fL-X!ydo4ZMfu4here2v^MR=6q;(NeuO,!7Yl!wa5WacC51
     N00e554  S2018 12 017e,(6H0kvPf%6g8.:wJOT1l,HCp52bU?jkgT\c^BtC_3CG'@qVO]C51
     N00e554  s2018 12 01YHPx8u?F2\+4$YX=lUeMP6*%Ma:3-.@H^:Y7;ksFZx%loLGZywK]C51
     N00e554  S2018 12 01KsLN1EBE\]jV)J.c#i8BocL;$w'0T7*f\M10!Nn\1v:nRBdojd'AC51
     N00e554  s2018 12 01@UQ7?,e3fHD=bx1nAucw?MX`sJ^M,fm%ux:^'(K)hE%S9OVwH^V/C51
     N00e554  S2018 12 01+Eb)aAC^lLe4LjhejqvA?4w(E1O]RBw$K9[l\?9b^'4NITrtP:nkC51
     N00e554  s2018 12 01Bv,GGy(m5!`x`h2hk@afJUZh0+W6_fY[M\Lb*b=j:#2F$G-Dq$:4C51
     N00e554  S2018 12 02@gW:ZaVw+pUvUvCb@oXx/Nf.km=)h*!ED[`3kJBcGw9j93_K1HyRC51
     N00e554  s2018 12 02l#(7QVQw'M`NJTr=g2hSZg+kC(/.@lv0+R;(YhCa8wZUlCqdr.+hC51
     N00e554  S2018 12 02tJ6Mer`S;HEl(T1NQ\._$DH(ly'-]UWs(Cliva7B.sP?G(!/D:jHC51
     N00e554  s2018 12 02lOA##FHlw0]sVI7WQlAua1wSI\8o!^xBb.Il_3*X+:(vL3Bmc)$:C51
     N00e554  S2018 12 02hNtPOt8RforAR?%0$?lTEvlCZJ]qR4T\fB1`L:5?l0qe5[i.NCT.C51
     N00e554  s2018 12 02$#Y_hUJO(d!VNru=SdK[aYC[NhQ=m.?mb[rkc\/dm76hTD-YYn9#C51
     N00e554  C2018 12 05?XBy%*ZwuxZ^'uSo)QVb0%!3.t?ZDASV=R6Gggve!Z'(/4x8eT!vH01
     N00e554  C2018 12 05VOXd,upvC]cse.*m=rE0^T1Z3gw/Z@H8*T3*08m^:XlxLcqqs/K*H01
     N00e554  C2018 12 05TBlFL4'*D?x\30N2\8].1F3piv/)@KgdRgx3LwR$Y?4.+qBYehl[H01
     N00e554  C2018 12 05_[?#g,2S,62Kt1vNTU:B!uTN-O^_4t$k;dGwg3(8an46HCPDE%RMH01
     N00e554  C2018 12 06OaUn.KE/N2v0K7$9M]W%\]WcI_Ou.CJoyrXJ=ARP=cUTAn\HQ9'3T12
     N00e554  C2018 12 06u`JEU#rgM5.Z?KwtZriptt/!b`:_`7?[QCZ-FRtNB].a._\BW%8RT12
     N00e554 KC2018 12 07_t]6=qwdJLlF/T-q9CnJH`Hb0c$Wdp^=aU58s9de_M?Fy2jG78-9H21
     N00e554 KC2018 12 07BU+ZLFia_cT#(m+:*4*QKv8?k.vo]1klq%=nZWh`\1bPoP4V08OUH21
     N00e554 KC2018 12 07^Ttqi6NF%.`;skhS%BciZ8E5cIM?e.mhZ\X.]7pwRiC1-SpFgbEWH21
     N00e554  C2018 12 0745lHKJ0.b`:o`8Gn3=nU%92*Jd]tSrf!x72`S8Fmb,_B-.0J?)p+T12
     N00e554  C2018 12 07_B;t-'Z`s'.5gGXuUByXa]NlK:G1cwK+nfexplanation%!G:@A$T12

Station data:
(C51) WISE. Measurers A. Mainzer, E. Wright, J. Bauer, T. Grav, J. Dailey, J.
   Masiero, R. Cutri, R. McMillan, R. Walker.
(F52) Pan-STARRS 2, Haleakala  (N20.707384 W156.255910)  US/Hawaii.
(H01) Magdalena Ridge Observatory, Socorro  (N33.984833 W107.189333)  US/New
   Mexico.  Observers W. H. Ryan, E. V. Ryan. Measurer W. H. Ryan. 2.4-m
   f/8.9 reflector + CCD.
(H21) Astronomical Research Observatory, Westfield  (N39.483057 W87.968270)
   US/Illinois. 0.76-m f/3.0 astrograph + CCD.
(T12) Mauna Kea-UH/Tholen NEO Follow-Up (2.24-m)  (N19.822991 W155.469434)
   US/Hawaii.  Observers D. Fohring, D. Hung, Y. Ramanjooloo, Z. Claytor, D.
   J. Tholen. 2.24-m University of Hawaii reflector.

Orbital elements:  N00e554
   Perihelion 2018 Oct 16.379019 +/- 0.000203 TT =  9:05:47 (JD 2458407.879019)
Epoch 2018 Dec  7.0 TT = JDT 2458459.5   Earth MOID: 0.0239   Ju: 0.9582
M  11.28794190 +/- 0.00039          (J2000 ecliptic)          AutoNEOCP
n   0.21866965 +/- 7.8e-6           Peri.  159.45448 +/- 0.00024
a   2.72862407 +/- 6.48e-5          Node   240.67699 +/- 0.00027
e   0.6603898 +/- 8.29e-6           Incl.    8.70181 +/- 0.00006
P   4.51                   H 21.2   G  0.15   U  4.8  
q 0.92666850 +/- 7.33e-7    Q 4.53057964 +/- 0.00013
From 38 observations 2018 July 8-Dec. 7; mean residual 0".54
Residuals in arcseconds: 
180708 F52  .10-  .05-    181128 C51  .13-  .14+    181202 C51  .05-  .73+    
180708 F52  .03-  .02+    181201 C51  .61+  1.5+    181205 H01  .03+  .12-    
180708 F52  .03-  .07-    181201 C51  .89+  .91+    181205 H01  .22-  .02-    
180708 F52  .17+  .07+    181201 C51  .15+  .13+    181205 H01  .14-  .01+    
181108 F52  .08+  .45-    181201 C51  .33-  .87-    181205 H01  .02+  .02+    
181108 F52  .39-  .04-    181201 C51  .88-  2.1-    181206 T12  .01+  .02-    
181108 F52  .25+  .36+    181201 C51  .32+  .32-    181206 T12  .01-  .00     
181127 C51  1.1+  .62+    181201 C51  1.6+  .08-    181207 H21  .26+  .05-    
181127 C51  .18-  .07-    181201 C51  .05-  .10+    181207 H21  .22+  .09+    
181127 C51  .72+  .06+    181201 C51  .05+  .29-    181207 H21  .33+  .04-    
181128 C51  .77-  1.2+    181201 C51  .86-  .70+    181207 T12  .04-  .01-    
181128 C51  .28-  .92+    181202 C51  .10-  .06+    181207 T12  .00   .01+    
181128 C51  .44+  .17+    181202 C51  .41+  .67+    

Ephemerides (geocentric):
Date (UTC) HH   RA              Dec         delta   r     elong  mag " sig PA
---- -- -- --  -------------   -----------  ------ ------ -----  --- ---- ---
2018 12 08 15  10 23 46.320   -03 38 17.29  .55736 1.1889  96.9 22.3 .014 104
2018 12 08 16  10 23 46.541   -03 38 57.57  .55746 1.1893  97.0 22.3 .014 104
2018 12 08 17  10 23 46.758   -03 39 37.80  .55757 1.1896  97.0 22.3 .015 104
2018 12 08 18  10 23 46.969   -03 40 17.99  .55767 1.1900  97.0 22.3 .015 104
2018 12 08 19  10 23 47.175   -03 40 58.13  .55777 1.1903  97.1 22.3 .015 104
2018 12 08 20  10 23 47.375   -03 41 38.21  .55788 1.1906  97.1 22.3 .016 104
2018 12 08 21  10 23 47.571   -03 42 18.25  .55798 1.1910  97.2 22.3 .016 104
2018 12 08 22  10 23 47.761   -03 42 58.24  .55808 1.1913  97.2 22.3 .016 104
2018 12 08 23  10 23 47.946   -03 43 38.18  .55818 1.1917  97.2 22.3 .016 104
2018 12 09 00  10 23 48.125   -03 44 18.08  .55828 1.1920  97.3 22.3 .017 104
2018 12 09 01  10 23 48.299   -03 44 57.92  .55839 1.1924  97.3 22.3 .017 104
2018 12 09 02  10 23 48.468   -03 45 37.72  .55849 1.1927  97.3 22.3 .017 104
2018 12 09 03  10 23 48.632   -03 46 17.46  .55859 1.1930  97.4 22.3 .018 103
2018 12 09 04  10 23 48.790   -03 46 57.16  .55869 1.1934  97.4 22.3 .018 103
2018 12 09 05  10 23 48.943   -03 47 36.81  .55879 1.1937  97.4 22.3 .018 103
2018 12 09 06  10 23 49.090   -03 48 16.41  .55890 1.1941  97.5 22.3 .019 103
2018 12 09 07  10 23 49.233   -03 48 55.96  .55900 1.1944  97.5 22.3 .019 103
2018 12 09 08  10 23 49.370   -03 49 35.47  .55910 1.1948  97.6 22.3 .019 103
2018 12 09 09  10 23 49.502   -03 50 14.92  .55920 1.1951  97.6 22.3 .019 103
2018 12 09 10  10 23 49.628   -03 50 54.33  .55930 1.1954  97.6 22.3 .020 103
2018 12 09 11  10 23 49.749   -03 51 33.68  .55940 1.1958  97.7 22.3 .020 103
2018 12 09 12  10 23 49.865   -03 52 12.99  .55950 1.1961  97.7 22.3 .020 103
2018 12 09 13  10 23 49.975   -03 52 52.25  .55960 1.1965  97.7 22.3 .021 103
2018 12 09 14  10 23 50.081   -03 53 31.46  .55970 1.1968  97.8 22.3 .021 103
2018 12 09 15  10 23 50.180   -03 54 10.62  .55980 1.1972  97.8 22.3 .021 103
2018 12 09 16  10 23 50.275   -03 54 49.73  .55990 1.1975  97.8 22.3 .021 103
2018 12 09 17  10 23 50.364   -03 55 28.80  .56000 1.1978  97.9 22.3 .022 103
2018 12 09 18  10 23 50.448   -03 56 07.81  .56010 1.1982  97.9 22.3 .022 103
2018 12 09 19  10 23 50.527   -03 56 46.78  .56020 1.1985  98.0 22.3 .022 103
2018 12 09 20  10 23 50.600   -03 57 25.69  .56030 1.1989  98.0 22.3 .023 103
2018 12 09 21  10 23 50.668   -03 58 04.56  .56040 1.1992  98.0 22.3 .023 103
2018 12 09 22  10 23 50.730   -03 58 43.38  .56050 1.1996  98.1 22.3 .023 103
2018 12 09 23  10 23 50.787   -03 59 22.15  .56060 1.1999  98.1 22.3 .024 103
2018 12 10 00  10 23 50.839   -04 00 00.87  .56070 1.2003  98.1 22.3 .024 103
2018 12 10 01  10 23 50.886   -04 00 39.54  .56080 1.2006  98.2 22.3 .024 103
2018 12 10 02  10 23 50.927   -04 01 18.17  .56090 1.2010  98.2 22.3 .024 103
2018 12 10 03  10 23 50.963   -04 01 56.74  .56100 1.2013  98.2 22.3 .025 103
2018 12 10 04  10 23 50.993   -04 02 35.27  .56110 1.2016  98.3 22.3 .025 103
2018 12 10 05  10 23 51.018   -04 03 13.74  .56120 1.2020  98.3 22.3 .025 103
2018 12 10 06  10 23 51.038   -04 03 52.17  .56129 1.2023  98.4 22.3 .026 103
2018 12 10 07  10 23 51.053   -04 04 30.55  .56139 1.2027  98.4 22.3 .026 103
2018 12 10 08  10 23 51.062   -04 05 08.88  .56149 1.2030  98.4 22.3 .026 103
2018 12 10 09  10 23 51.066   -04 05 47.16  .56159 1.2034  98.5 22.3 .026 103
2018 12 10 10  10 23 51.064   -04 06 25.39  .56169 1.2037  98.5 22.3 .027 103
2018 12 10 11  10 23 51.057   -04 07 03.57  .56179 1.2041  98.5 22.3 .027 103
2018 12 10 12  10 23 51.045   -04 07 41.71  .56188 1.2044  98.6 22.3 .027 103
2018 12 10 13  10 23 51.027   -04 08 19.79  .56198 1.2048  98.6 22.3 .028 103
2018 12 10 14  10 23 51.004   -04 08 57.83  .56208 1.2051  98.7 22.3 .028 103